"Pseudo-MPEC" for C06QYD2

Created 2019 Feb 13 5:18:31 UT using Find_Orb

Click here for an explanation of pseudo-MPECs

 
 Astrometry: 
     C06QYD2  C2019 01 27X7P0JK=J'B*wQ3UP,6V!l(w:96Q2oBbYlgAstrometryPpIM!KJRF51
     C06QYD2  C2019 01 27Ga0eD-Y]xdom,1RSWI*$M.0fglf\^gwn,AVe$TOM!5_'Al8jnBHuF51
     C06QYD2  C2019 01 27S.IQWUL3@+AIXB8q#Yc$18L-i_I`/+nrTyO/Kb)V],iYD:\WXR[iF51
     C06QYD2  C2019 01 27NV*B(^AWGGsPWV65Z;L8s$MI5m76lfGQbOi^-7+ZAb72cLlXR^+WF51
     C06QYD2  C2019 02 05la8mlTB[8)LCdH`UZ#'[4?@E+g%:\Q,redacted;wiSCDv$6Y+4CF51
     C06QYD2  C2019 02 05G2nfR9Ksrf/JL`m)kVb(5G3TjeAAEh-m/9`Z23v]M6P-@Bc\$R)@F51
     C06QYD2  C2019 02 05P^x/w^DcqD9.KP92J5u,9(iYmLCD*tO^2Mnce876@EJ^NtM$Zf,IF51
     C06QYD2  C2019 02 11.25719 08 55 47.19 +12 43 29.3    ~2B73 20.0 GVNEOCPG96
     C06QYD2  C2019 02 11.26283 08 55 50.15 +12 44 39.8    ~2B73 19.9 GVNEOCPG96
     C06QYD2  C2019 02 11.26845 08 55 53.12 +12 45 51.9    ~2B73       VNEOCPG96
     C06QYD2  C2019 02 11.27407 08 55 56.03 +12 47 02.7    ~2B73 20.2 GVNEOCPG96
     C06QYD2  C2019 02 11.37874 08 56 52.23 +13 09 18.3    ~2B9X 19.7 GVNEOCPI52
     C06QYD2  C2019 02 11.38024 08 56 53.03 +13 09 37.2    ~2B9X 20.0 GVNEOCPI52
     C06QYD2  C2019 02 11.38079 08 56 53.36 +13 09 44.1    ~2B9X 19.8 GVNEOCPI52
     C06QYD2 KC2019 02 11'q(T?EsWL0HF0pHlDvJXbV'b00*bC!Cn)Q4OJEU5m!E1KmXoi(M,C95
     C06QYD2 KC2019 02 11e;S./7_C@ciOx6PCUkZ$4+@Umh$1ACNQi?jg_TV4RFPHsA\QUy\PC95
     C06QYD2 KC2019 02 11Vthbd-RQG`a5maTC0'F3clicksyo#TyBA9[w4#9Rel)f,D!y+/voL01
     C06QYD2 KC2019 02 11sEIrgjf#BTZ[,E'i143ggv4g2*kTy?#kAGWDie%Kq$,`jtsWblSZL01
     C06QYD2 KC2019 02 11q_!t+BBAe(Fjy$w:nqgK3YYmmT:1t;]4pW?8S[3?c3c=8`1,2x2EL01
     C06QYD2 pC2019 02 11ks(ar_dmxfY1Ov#j-0`v!rgHQf/v9e$U]51QTQ1?aCJo-/)('J*XL01
     C06QYD2 KC2019 02 11.96227609 03 56.76 +15 25 44.4    ~2BNm 19.7 GVNEOCPJ95
     C06QYD2 KC2019 02 11.96789909 04 00.74 +15 27 11.8    ~2BNm 19.3 GVNEOCPJ95
     C06QYD2 KC2019 02 11.97436909 04 05.30 +15 28 51.2    ~2BNm 19.5 GVNEOCPJ95
     C06QYD2 KC2019 02 128=+Nsp%MGjl(RiR!vY0Y;k)y#s92WsIj+wcWjIG6QS^TV=62/s13204
     C06QYD2 KC2019 02 12MB+%_-here\)0]?b7ykV=dF)s?:,@s,DK+LG6+,wg5.J/J;.JaAK204
     C06QYD2 KC2019 02 12$8k#cP)1g4qU-LYvu$F\Cgaak_y0jXH5[1fv-RnK-UxfKN;OOwLp204
     C06QYD2  C2019 02 12.13435 09 06 28.57 +16 11 59.1    ~2C3X 20.1 GVNEOCPI52
     C06QYD2  C2019 02 12.13491 09 06 28.94 +16 12 07.6    ~2C3X 19.6 GVNEOCPI52
     C06QYD2  C2019 02 12.13547 09 06 29.43 +16 12 16.8    ~2C3X 20.2 GVNEOCPI52
     C06QYD2  C2019 02 12.13602 09 06 29.84 +16 12 26.6    ~2C3X 19.4 GVNEOCPI52
     C06QYD2 KC2019 02 12.22085309 07 34.25 +16 35 39.0    ~2C5m 19.4 GVNEOCPV03
     C06QYD2 KC2019 02 12.22555409 07 37.83 +16 36 58.1    ~2C5m 19.5 GVNEOCPV03
     C06QYD2 KC2019 02 12hEt$Z+Dx\Q*PVk_TX0]M92Kf(cTjaAPg6.Gv,X]*b9PGHb1_5Jq`587
     C06QYD2 KC2019 02 122:oSQWT'c._m!nCp+3U@]L[tY_W$*rN]#+l*oCImD=6F3AYhpnwj587
     C06QYD2 KC2019 02 12Wh+ZNwCwalE_d[_wW@si4p3,vHj%CO:qLXn#@:HY$*?Va7vZd*:'K88
     C06QYD2 KC2019 02 12g/855`9U!a4YE-5`EetKPXe1HV:m6V4F3M5H3N#hjkforHiy]*x#587
     C06QYD2 KC2019 02 12_EX,[hA[!HqI[yJirL3K/=IfuL?f;]L`o2v^SW_!(c7(i;K;g^@PK88
     C06QYD2 KC2019 02 12q1twrCdn[=%us.^djM%oCl.cvc-9H#Pth$q:![b]ShXPpjtwIi@oK88
     C06QYD2 KC2019 02 12cH5]69/Q:D9QQ[cWeY!_1JO+?i1A4p_\+BMD+X8PKj'--9Lg:2R?104
     C06QYD2 KC2019 02 12c;?HRJDYH*7;4b+oI8.vY#beB#IDPPaEIcQt.0v8G7dvugi*=-%h104
     C06QYD2 KC2019 02 129B@c,r7n(3`*%fH!a5DE-GRf5explanation[IE*!^AG2m^vLfZQ104

Station data:
(104) San Marcello Pistoiese  (N44.063037 E10.804200)  Italy. 0.40-m f/5
   reflector.
(204) Schiaparelli Observatory  (N45.867933 E8.770800)  Italy.  Observer L.
   Buzzi. 0.60-m f/4.64 Newtonian + CCD.
(587) Sormano  (N45.882949 E9.229180)  Italy.  Observers F. Manca, A. Testa.
   Measurer F. Manca. 0.5-m + CCD.
(C95) SATINO Remote Observatory, Haute Provence  (N43.932042 E5.712390)
   France.
(F51) Pan-STARRS 1, Haleakala  (N20.707235 W156.255910)  US/Hawaii.
   Observers N. Primak, A. Schultz, S. Watters, J. Thiel, T. Goggia. Measurer
   PS1 Science Consortium. 1.8-m Ritchey-Chrétien + CCD.
(G96) Mt. Lemmon Survey  (N32.442754 W110.788720)  US/Arizona.  Observers B.
   M. Africano, E. J. Christensen, G. A. Farneth, D. C. Fuls, A. R. Gibbs, A.
   D. Grauer, H. Groeller, J. A. Johnson, R. A. Kowalski, S. M. Larson, G. J.
   Leonard, R. L. Seaman, F. C. Shelly. 1.5-m reflector + 10K CCD.
(I52) Steward Observatory, Mt. Lemmon Station  (N32.442547 W110.788920)
   US/Arizona.  Observers B. M. Africano, E. J. Christensen, G. A. Farneth,
   D. C. Fuls, A. R. Gibbs, A. D. Grauer, H. Groeller, J. A. Johnson, R. A.
   Kowalski, S. M. Larson, G. J. Leonard, R. L. Seaman, F. C. Shelly. 1.0-m
   reflector + CCD.
(J95) Great Shefford  (N51.474969 W1.447003)  UK.  Observer P. Birtwhistle.
   0.40-m f/6.0 Schmidt-Cassegrain + CCD.
(K88) GINOP-KHK, Piszkéstető  (N47.917622 E19.893600)  Hungary.  Observer K.
   Sárneczky. 0.60-m Schmidt + CCD.
(L01) Višnjan Observatory, Tičan  (N45.290900 E13.749300)  Croatia.
   Observers K. Korlević, E. Pettarin. Measurer E. Pettarin. 1.0-m f/2.9
   reflector + CCD.
(V03) Big Water  (N37.083379 W111.668600)  US/Utah.  Observer D. Rankin.
   0.30-m reflector + CCD.

Orbital elements:  C06QYD2
   Perihelion 2019 Mar 21.938284 +/- 0.00409 TT = 22:31:07 (JD 2458564.438284)
Epoch 2019 Feb 12.0 TT = JDT 2458526.5   Earth MOID: 0.0150   AutoNEOCP
M 339.42351172 +/- 0.018            (J2000 ecliptic)
n   0.54236739 +/- 0.00044          Peri.   45.73407 +/- 0.0022
a   1.48915647 +/- 0.000806         Node   142.68649 +/- 0.00019
e   0.3745827 +/- 0.000369          Incl.    7.91212 +/- 0.006
P   1.82/663.74d           H 27.2   G  0.15   U  7.6  
q 0.93134422 +/- 4.56e-5    Q 2.04696873 +/- 0.00166
From 41 observations 2019 Jan. 27-Feb. 12; mean residual 0".39
Residuals in arcseconds: 
190127 F51  .03+  .36+    190211 C95  .32-  .23+    190212 I52  .26+  .34-    
190127 F51  .14-  .49+    190211 C95  .23-  .11+    190212 I52  .05+  .34+    
190127 F51  .28-  .20-    190211 L01  1.4-  .07+    190212 V03  .18+  .15-    
190127 F51  .02-  .20+    190211 L01  1.3-  .28-    190212 V03  .18+  .12-    
190205 F51  .07+  .24-    190211 L01  .30-  .58+    190212 587  .74-  .29+    
190205 F51  .00   .38-    190211 L01  .46-  .39+    190212 587  .61-  .22-    
190205 F51  .06+  .31-    190211 J95  .05-  .37-    190212 K88  .11+  .70+    
190211 G96  .15-  .53+    190211 J95  .39+  .23+    190212 587  .58-  .28-    
190211 G96  .01+  .35-    190211 J95  .52+  .34-    190212 K88  .15+  .26+    
190211 G96  .43+  .58+    190212 204  .19+  .13+    190212 K88  .61+  .33+    
190211 G96  .06-  .16+    190212 204  .35+  .33+    190212 104  .63-  .08+    
190211 I52  .19-  .32+    190212 204  .12-  .10+    190212 104  .08-  .06-    
190211 I52  .72-  .05-    190212 I52  .33+  .51+    190212 104  .02-  .29-    
190211 I52  .38-  .21-    190212 I52  .57-  .27-    

Ephemerides (geocentric):
Date (UTC) HH   RA              Dec         delta   r     elong  mag " sig PA
---- -- -- --  -------------   -----------  ------ ------ -----  --- ---- ---
2019 02 13 05  09 24 33.929   +21 56 00.85  .02392 1.0108 170.3 19.7 .106 127
2019 02 13 06  09 25 26.938   +22 11 40.36  .02375 1.0107 170.1 19.7 .106 124
2019 02 13 07  09 26 20.897   +22 27 31.90  .02359 1.0105 170.0 19.7 .106 120
2019 02 13 08  09 27 15.828   +22 43 35.62  .02342 1.0103 169.8 19.7 .106 117
2019 02 13 09  09 28 11.757   +22 59 51.67  .02326 1.0102 169.6 19.7 .107 113
2019 02 13 10  09 29 08.709   +23 16 20.18  .02310 1.0100 169.4 19.7 .108 109
2019 02 13 11  09 30 06.709   +23 33 01.29  .02293 1.0098 169.2 19.7 .110 105
2019 02 13 12  09 31 05.785   +23 49 55.13  .02277 1.0097 169.0 19.7 .113 101
2019 02 13 13  09 32 05.964   +24 07 01.85  .02261 1.0095 168.8 19.7 .116  97
2019 02 13 14  09 33 07.275   +24 24 21.56  .02245 1.0093 168.6 19.7 .120  93
2019 02 13 15  09 34 09.747   +24 41 54.39  .02230 1.0092 168.3 19.7 .125  90
2019 02 13 16  09 35 13.410   +24 59 40.47  .02214 1.0090 168.1 19.7 .130  86
2019 02 13 17  09 36 18.296   +25 17 39.92  .02198 1.0088 167.8 19.6 .136  83
2019 02 13 18  09 37 24.437   +25 35 52.84  .02183 1.0087 167.6 19.6 .143  80
2019 02 13 19  09 38 31.866   +25 54 19.34  .02168 1.0085 167.3 19.6 .150  77
2019 02 13 20  09 39 40.618   +26 12 59.52  .02152 1.0083 167.0 19.6 .158  74
2019 02 13 21  09 40 50.728   +26 31 53.49  .02137 1.0082 166.7 19.6 .167  72
2019 02 13 22  09 42 02.233   +26 51 01.32  .02122 1.0080 166.4 19.6 .176  70
2019 02 13 23  09 43 15.170   +27 10 23.10  .02107 1.0078 166.1 19.6 .187  67
2019 02 14 00  09 44 29.578   +27 29 58.90  .02092 1.0077 165.8 19.6 .197  65
2019 02 14 01  09 45 45.498   +27 49 48.78  .02078 1.0075 165.4 19.6 .208  64
2019 02 14 02  09 47 02.970   +28 09 52.80  .02063 1.0074 165.1 19.6 .220  62
2019 02 14 03  09 48 22.038   +28 30 10.99  .02049 1.0072 164.7 19.6 .233  61
2019 02 14 04  09 49 42.746   +28 50 43.39  .02034 1.0070 164.4 19.6 .246  59
2019 02 14 05  09 51 05.139   +29 11 30.01  .02020 1.0069 164.0 19.6 .260  58
2019 02 14 06  09 52 29.264   +29 32 30.87  .02006 1.0067 163.6 19.6 .274  57
2019 02 14 07  09 53 55.169   +29 53 45.94  .01992 1.0065 163.2 19.6 .289  56
2019 02 14 08  09 55 22.904   +30 15 15.21  .01978 1.0064 162.9 19.6 .304  55
2019 02 14 09  09 56 52.521   +30 36 58.62  .01965 1.0062 162.5 19.6 .320  54
2019 02 14 10  09 58 24.073   +30 58 56.14  .01951 1.0060 162.0 19.6 .337  53
2019 02 14 11  09 59 57.613   +31 21 07.66  .01938 1.0059 161.6 19.6 .354  52
2019 02 14 12  10 01 33.199   +31 43 33.11  .01925 1.0057 161.2 19.6 .372  52
2019 02 14 13  10 03 10.888   +32 06 12.35  .01911 1.0056 160.8 19.6 .390  51
2019 02 14 14  10 04 50.741   +32 29 05.25  .01899 1.0054 160.3 19.6 .409  51
2019 02 14 15  10 06 32.817   +32 52 11.64  .01886 1.0052 159.9 19.6 .429  50
2019 02 14 16  10 08 17.181   +33 15 31.34  .01873 1.0051 159.4 19.6 .449  50
2019 02 14 17  10 10 03.897   +33 39 04.11  .01861 1.0049 158.9 19.6 .470  49
2019 02 14 18  10 11 53.033   +34 02 49.72  .01849 1.0047 158.4 19.6 .491  49
2019 02 14 19  10 13 44.656   +34 26 47.90  .01837 1.0046 158.0 19.6 .513  49
2019 02 14 20  10 15 38.838   +34 50 58.33  .01825 1.0044 157.5 19.6 .536  49
2019 02 14 21  10 17 35.650   +35 15 20.67  .01813 1.0043 157.0 19.6 .559  48
2019 02 14 22  10 19 35.168   +35 39 54.56  .01801 1.0041 156.4 19.6 .582  48
2019 02 14 23  10 21 37.465   +36 04 39.58  .01790 1.0039 155.9 19.6 .606  48
2019 02 15 00  10 23 42.622   +36 29 35.28  .01779 1.0038 155.4 19.6 .631  48
2019 02 15 01  10 25 50.716   +36 54 41.17  .01768 1.0036 154.9 19.6 .657  48
2019 02 15 02  10 28 01.830   +37 19 56.73  .01757 1.0035 154.3 19.6 .683  48
2019 02 15 03  10 30 16.045   +37 45 21.38  .01747 1.0033 153.8 19.6 .709  48
2019 02 15 04  10 32 33.448   +38 10 54.51  .01736 1.0031 153.2 19.6 .736  48